Weather Roundup
Issued by NWS Chicago, IL

Home | Current Version | Previous Version | Graphics & Text | Print | Product List | Glossary On
Versions: 1 2 3 4 5 6 7 8 9 10 11 12 13 14 15 16 17 18 19 20 21 22 23 24 25 26 27 28 29 30 31 32 33 34 35 36 37 38 39 40 41 42 43 44 45 46 47 48 49 50
000
NZUS59 KLOT 230304
HRRLOT

CHICAGO AREA WEATHER ROUNDUP
NATIONAL WEATHER SERVICE CHICAGO/ROMEOVILLE IL
1000 PM CDT THU JUN 22 2017

NOTE: "FAIR" INDICATES FEW OR NO CLOUDS BELOW 12,000 FEET WITH NO
SIGNIFICANT WEATHER AND/OR OBSTRUCTIONS TO VISIBILITY.

* THESE STATIONS ARE NOT UNDER NWS QUALITY CONTROL. THEY ALSO MAY NOT
  REPORT WEATHER SUCH AS PRECIPITATION OR FOG.

ILZ005-006-012>014-019>023-230400-
NORTHEAST ILLINOIS

CITY           SKY/WX    TMP DP  RH WIND       PRES   REMARKS
OHARE          CLOUDY    79  69  71 S16       29.72S HX  81
MIDWAY         CLOUDY    79  71  76 S16       29.74R HX  82
AURORA         CLOUDY    78  72  81 S10       29.74R HX  80
LANSING*       CLOUDY    77  68  73 SW15G24   29.76R
JOLIET*        CLOUDY    78  73  83 S13       29.74S HX  81
WAUKEGAN       PTCLDY    79  70  74 SW9       29.71R HX  82
DUPAGE AIRPORT CLOUDY    77  73  87 S16       29.72S
WHEELING       LGT RAIN  78  74  87 S9        29.74R HX  81
MORRIS*        MOCLDY    76  71  84 S13       29.73S
LEWIS AIRPORT* CLOUDY    77  69  76 SW10G17   29.75R
NORTHERLY ISL    N/A     78  68  71 S16         N/A  HX  80
$$

WIZ051-052-058>065-066-070>072-230400-
SOUTHEAST WISCONSIN

CITY           SKY/WX    TMP DP  RH WIND       PRES   REMARKS
MILWAUKEE      TSTM      69  66  90 NE5       29.70F
KENOSHA*       CLOUDY    77  69  76 CALM      29.72R
RACINE*        TSTM      69  66  90 NW5       29.74R
$$

INZ001>003-010>013-019-020-230400-
NORTHWEST INDIANA

CITY           SKY/WX    TMP DP  RH WIND       PRES   REMARKS
GARY*          CLOUDY    79  68  69 S7        29.75R HX  81
MICHIGAN CITY* NOT AVBL
RENSSELAER*    NOT AVBL
VALPARAISO     CLOUDY    76  70  82 S13G22    29.78R
$$

LMZ740>746-230400-
SOUTHERN LAKE MICHIGAN

STATION/POSITION TIME  SKY/WX   TEMP WIND        PRES    VSBY
                                AIR  DIR/SP/G
                 (UTC)          (F)  (DEG/KT/KT) (MB)    (MI)
HARRISON CRIB    0240            78  200/ 27/ 30   N/A
BURNHAM HARBOR   0300            78                N/A
CALUMET HARBOR   0230            78  200/ 10/ 14 1006.7R
BURNS HARBOR     0240            77  190/ 12/ 20 1007.8R
MICHIGAN CITY    0240            77  180/ 15/ 18   N/A
$$

ABBREVIATIONS USED IN REMARKS
   TC - TEMPERATURE IN CELSIUS
  WCI - WIND CHILL INDEX
   HX - HEAT INDEX
  VSB - VISIBILITY
$$




USA.gov is the U.S. government's official web portal to all federal, state and local government web resources and services.